This demonstration page uses our WeatherBlox Daily Observations layout. Learn more.

Left ArrowRight Arrow

53.62937, 11.41316

Hourly Observations for September 9, 2015

Temp ( °F °C ) Dew Point ( °F °C ) Humidity (%) Winds ( mph kmh ) Pressure ( in mb ) Visibility ( mi km ) Precip ( " mm )
4:20 am 04:20 Mostly Clear 37 3 37 3 100 100 Calm 30.27 1025 7 11 N/A
4:50 am 04:50 Mostly Clear 39 4 39 4 100 100 VRB 1 2 30.27 1025 7 11 N/A
5:50 am 05:50 Mostly Clear 37 3 37 3 100 100 E 1 2 30.27 1025 7 11 N/A
6:20 am 06:20 Mostly Clear 37 3 37 3 100 100 ENE 2 4 30.27 1025 7 11 N/A
6:50 am 06:50 Mostly Sunny 36 2 36 2 100 100 NE 1 2 30.27 1025 7 11 N/A
7:20 am 07:20 Mostly Sunny 37 3 37 3 100 100 ENE 2 4 30.27 1025 7 11 N/A
7:50 am 07:50 Mostly Sunny 41 5 39 4 93 93 ENE 2 4 30.27 1025 7 11 N/A
8:20 am 08:20 Mostly Sunny 46 8 46 8 100 100 Calm 30.30 1026 7 11 N/A
8:50 am 08:50 Mostly Sunny 52 11 52 11 100 100 VRB 1 2 30.30 1026 7 11 N/A
9:20 am 09:20 Mostly Sunny 54 12 48 9 82 82 VRB 1 2 30.30 1026 7 11 N/A
9:50 am 09:50 Mostly Sunny 59 15 48 9 68 68 NE 3 6 30.30 1026 7 11 N/A
10:20 am 10:20 Mostly Sunny 61 16 48 9 63 63 NNE 3 6 30.30 1026 7 11 N/A
10:50 am 10:50 Mostly Sunny 61 16 48 9 63 63 NNE 7 11 30.30 1026 7 11 N/A
11:20 am 11:20 Mostly Sunny 63 17 48 9 59 59 NE 8 13 30.30 1026 30 48 N/A
11:50 am 11:50 Mostly Sunny 63 17 46 8 56 56 NE 9 15 30.30 1026 7 11 N/A
12:20 pm 12:20 Partly Cloudy 63 17 46 8 56 56 VRB 8 13 30.30 1026 30 48 N/A
12:50 pm 12:50 Partly Cloudy 63 17 48 9 59 59 E 10 17 30.30 1026 30 48 N/A
1:20 pm 13:20 Partly Cloudy 64 18 46 8 52 52 E 12 19 30.30 1026 30 48 N/A
1:50 pm 13:50 Partly Cloudy 63 17 45 7 52 52 NE 7 11 30.30 1026 30 48 N/A
2:20 pm 14:20 Mostly Sunny 66 19 46 8 49 49 ENE 10 17 30.30 1026 7 11 N/A
2:50 pm 14:50 Mostly Sunny 64 18 45 7 49 49 NE 10 17 30.30 1026 7 11 N/A
3:20 pm 15:20 Mostly Sunny 64 18 45 7 49 49 N 6 9 30.30 1026 7 11 N/A
3:50 pm 15:50 Mostly Sunny 63 17 45 7 52 52 NNE 8 13 30.30 1026 7 11 N/A
4:20 pm 16:20 Mostly Sunny 66 19 46 8 49 49 NNE 3 6 30.30 1026 7 11 N/A
4:50 pm 16:50 Mostly Sunny 63 17 46 8 56 56 NE 9 15 30.30 1026 7 11 N/A
5:20 pm 17:20 Mostly Sunny 63 17 48 9 59 59 NE 10 17 30.30 1026 7 11 N/A
5:50 pm 17:50 Mostly Sunny 63 17 48 9 59 59 ENE 9 15 30.30 1026 7 11 N/A
6:20 pm 18:20 Mostly Sunny 63 17 46 8 56 56 NNE 5 7 30.30 1026 7 11 N/A
6:50 pm 18:50 Mostly Sunny 61 16 48 9 63 63 NE 7 11 30.30 1026 7 11 N/A

Powered by AerisWeather